Location: Abundant Grace Fellowship
(35.0349°N, 90.0924°W)
Time: 08:46:17
(UTC+00:00)

Delta 2 Rocket - Pass Details

Date: 18 January 2026
Orbit: 347 x 475 km, 35.6° (Epoch: 9 February)

Event Time Altitude Azimuth Distance (km) Brightness Sun altitude
Exits shadow 11:32:02 36° 204° (SSW) 672 3.6 -19.3°
Maximum altitude 11:32:52 46° 162° (SSE) 566 3.5 -19.1°
Drops below altitude 10° 11:36:02 10° 87° (E) 1,442 6.6 -18.5°
Sets 11:38:07 0° 81° (E) 2,273 7.8 -18.1°
